{"data":{"norad_id":67733,"intl_designator":"2026-026N","name":"STARLINK-36746","alt_names":[],"object_type":"PAYLOAD","status":"ACTIVE","operator":null,"country":"US","launch_date":"2026-02-11","launch_site_code":"AFWTR","launch_vehicle":null,"mission":null,"orbit_class":"UNKNOWN","rcs_meters":null,"size_class":null,"mass_kg":null,"dimensions":null,"purposes":["comms"],"wikipedia_slug":null,"has_3d_model":false,"image_url":null,"decayed_at":null,"tle_current":{"epoch":"2026-09-19T20:47:31.041600Z","epoch_age_seconds":121189,"freshness":"FRESH","line1":"1 67733U 26026N   26262.86633150  .00015396  00000+0  47815-3 0  9993","line2":"2 67733  97.2871 314.7042 0000728 101.9656 258.1669 15.33450797 33881","mean_motion":15.33450797,"eccentricity":7.28e-5,"inclination_deg":97.2871,"raan_deg":314.7042,"arg_perigee_deg":101.9656,"mean_anomaly_deg":258.1669,"bstar":0.00047815,"rev_number":3388,"period_min":93.905849657333,"perigee_km":465.02770807794,"apogee_km":466.02414540007,"semimajor_km":6843.662926739,"source":"CELESTRAK","updated_at":"2026-09-20T09:00:43.658934Z"}}}